Location: Kaseke
(18.0171°S, 31.0526°E)
Time: 12:47:40
(UTC+00:00)

Cosmos 1025 Rocket - Pass Details

Date: 14 July 2020
Orbit: 593 x 619 km, 82.5° (Epoch: 07 August)

Event Time Altitude Azimuth Distance (km) Brightness Sun altitude
Rises 02:59:51 0° 351° (N) 2,821 6.5 -20.5°
Reaches altitude 10° 03:02:03 10° 349° (NNW) 1,923 5.6 -20.0°
Maximum altitude 03:06:16 69° 266° (W) 642 2.8 -19.0°
Drops below altitude 10° 03:10:33 10° 181° (S) 1,940 5.4 -18.0°
Sets 03:12:46 0° 179° (S) 2,848 6.3 -17.5°
